When you browse on this site, cookies collect data to enhance your experience and personalize the content and advertising you see.
Visit our Privacy Policy to learn more. By continuing to use the site, you agree to this use of cookies and data.
  • In Hungary
  • List of Countries
  • For 7 days
  • Water Temperature
  • Weather Map
  • News
  • Weather Widgets
  • user-avatar
    Login

    Hourly Weather St. Christoph am Arlberg

    Today, 24 August, Saturday

    Time Temperature Precipitation Wind Pressure Humidity
    00:00 +10°C° 0 mm 1 mps 606 mmHg 89%
    01:00 +9°C° 0 mm 2 mps 606 mmHg 87%
    02:00 +9°C° 0 mm 2 mps 606 mmHg 87%
    03:00 +9°C° 0 mm 1 mps 605 mmHg 87%
    04:00 +9°C° 0 mm 1 mps 605 mmHg 86%
    05:00 +10°C° 0 mm 1 mps 605 mmHg 84%
    06:00 +11°C° 0 mm 1 mps 606 mmHg 82%
    07:00 +12°C° 0 mm 1 mps 606 mmHg 80%
    08:00 +14°C° 0 mm 1 mps 607 mmHg 71%
    09:00 +16°C° 0 mm 1 mps 608 mmHg 63%
    10:00 +18°C° 0 mm 1 mps 609 mmHg 55%
    11:00 +19°C° 0.3 mm 1 mps 609 mmHg 55%
    12:00 +19°C° 0.3 mm 1 mps 609 mmHg 54%
    13:00 +20°C° 0.3 mm 1 mps 609 mmHg 54%
    14:00 +19°C° 1.3 mm 1 mps 608 mmHg 61%
    15:00 +18°C° 1.3 mm 1 mps 608 mmHg 67%
    16:00 +18°C° 1.3 mm 1 mps 607 mmHg 74%
    17:00 +15°C° 1 mm 1 mps 607 mmHg 79%
    18:00 +14°C° 1 mm 1 mps 606 mmHg 83%
    19:00 +12°C° 1 mm 0 mps 605 mmHg 88%
    20:00 +11°C° 0.2 mm 0 mps 605 mmHg 88%
    21:00 +10°C° 0.2 mm 0 mps 605 mmHg 88%
    22:00 +10°C° 0.2 mm 0 mps 605 mmHg 89%
    23:00 +10°C° 0 mm 1 mps 605 mmHg 89%

    Tomorrow, 25 August, Sunday

    Time Temperature Precipitation Wind Pressure Humidity
    00:00 +10°C° 0 mm 1 mps 604 mmHg 89%
    01:00 +10°C° 0 mm 1 mps 604 mmHg 88%
    02:00 +9°C° 0 mm 1 mps 604 mmHg 88%
    03:00 +9°C° 0 mm 1 mps 604 mmHg 88%
    04:00 +9°C° 0 mm 1 mps 604 mmHg 88%
    05:00 +10°C° 0 mm 1 mps 605 mmHg 86%
    06:00 +11°C° 0 mm 1 mps 605 mmHg 84%
    07:00 +12°C° 0 mm 0 mps 606 mmHg 81%
    08:00 +14°C° 0.3 mm 1 mps 606 mmHg 76%
    09:00 +16°C° 0.3 mm 1 mps 607 mmHg 70%
    10:00 +18°C° 0.3 mm 1 mps 608 mmHg 64%
    11:00 +18°C° 1.4 mm 1 mps 607 mmHg 65%
    12:00 +18°C° 1.4 mm 1 mps 607 mmHg 67%
    13:00 +18°C° 1.4 mm 2 mps 607 mmHg 68%
    14:00 +17°C° 1.4 mm 2 mps 607 mmHg 69%
    15:00 +17°C° 1.4 mm 2 mps 607 mmHg 70%
    16:00 +17°C° 1.4 mm 2 mps 607 mmHg 71%
    17:00 +15°C° 0.4 mm 1 mps 606 mmHg 78%
    18:00 +13°C° 0.4 mm 1 mps 605 mmHg 85%
    19:00 +11°C° 0.4 mm 0 mps 605 mmHg 92%
    20:00 +10°C° 0 mm 0 mps 605 mmHg 93%
    21:00 +9°C° 0 mm 0 mps 604 mmHg 94%
    22:00 +8°C° 0 mm 0 mps 604 mmHg 95%
    23:00 +8°C° 0 mm 0 mps 604 mmHg 95%

    Day after tomorrow, 26 August, Monday

    Time Temperature Precipitation Wind Pressure Humidity
    00:00 +8°C° 0 mm 0 mps 604 mmHg 94%
    01:00 +7°C° 0 mm 0 mps 604 mmHg 94%
    02:00 +8°C° 0 mm 1 mps 604 mmHg 93%
    03:00 +8°C° 0 mm 1 mps 603 mmHg 92%
    04:00 +8°C° 0 mm 1 mps 603 mmHg 91%
    05:00 +9°C° 0 mm 1 mps 604 mmHg 89%
    06:00 +10°C° 0 mm 1 mps 604 mmHg 87%
    07:00 +12°C° 0 mm 1 mps 605 mmHg 84%
    08:00 +14°C° 0 mm 1 mps 606 mmHg 74%
    09:00 +16°C° 0 mm 1 mps 607 mmHg 64%
    10:00 +17°C° 0 mm 0 mps 607 mmHg 54%
    11:00 +20°C° 0 mm 1 mps 608 mmHg 50%
    12:00 +21°C° 0 mm 1 mps 608 mmHg 46%
    13:00 +21°C° 0 mm 1 mps 608 mmHg 41%
    14:00 +20°C° 0 mm 2 mps 608 mmHg 44%
    15:00 +20°C° 0 mm 2 mps 608 mmHg 47%
    16:00 +19°C° 0 mm 2 mps 607 mmHg 51%
    17:00 +17°C° 0.2 mm 2 mps 606 mmHg 64%
    18:00 +15°C° 0.2 mm 1 mps 605 mmHg 77%
    19:00 +12°C° 0.2 mm 1 mps 604 mmHg 90%
    20:00 +12°C° 0.1 mm 1 mps 604 mmHg 90%
    21:00 +11°C° 0.1 mm 1 mps 604 mmHg 91%
    22:00 +10°C° 0.1 mm 1 mps 604 mmHg 91%
    23:00 +10°C° 0 mm 1 mps 604 mmHg 91%

    27 August, Tuesday

    Time Temperature Precipitation Wind Pressure Humidity
    00:00 +10°C° 0 mm 1 mps 603 mmHg 90%
    01:00 +9°C° 0 mm 1 mps 603 mmHg 89%
    02:00 +9°C° 0 mm 1 mps 603 mmHg 89%
    03:00 +9°C° 0 mm 1 mps 603 mmHg 88%
    04:00 +9°C° 0 mm 1 mps 603 mmHg 88%
    05:00 +10°C° 0 mm 1 mps 604 mmHg 86%
    06:00 +12°C° 0 mm 1 mps 605 mmHg 84%
    07:00 +13°C° 0 mm 1 mps 605 mmHg 81%
    08:00 +15°C° 0 mm 1 mps 606 mmHg 70%
    09:00 +18°C° 0 mm 1 mps 607 mmHg 59%
    10:00 +18°C° 0 mm 0 mps 608 mmHg 48%
    11:00 +21°C° 0 mm 1 mps 608 mmHg 46%
    12:00 +21°C° 0 mm 1 mps 608 mmHg 44%
    13:00 +22°C° 0 mm 1 mps 608 mmHg 41%
    14:00 +20°C° 0.2 mm 2 mps 608 mmHg 45%
    15:00 +20°C° 0.2 mm 2 mps 607 mmHg 49%
    16:00 +19°C° 0.2 mm 2 mps 607 mmHg 53%
    17:00 +18°C° 0.3 mm 1 mps 606 mmHg 62%
    18:00 +15°C° 0.3 mm 1 mps 605 mmHg 72%
    19:00 +13°C° 0.3 mm 1 mps 604 mmHg 81%
    20:00 +12°C° 0 mm 1 mps 604 mmHg 81%
    21:00 +12°C° 0 mm 1 mps 604 mmHg 82%
    22:00 +11°C° 0 mm 1 mps 604 mmHg 82%
    23:00 +11°C° 0 mm 1 mps 604 mmHg 82%

    28 August, Wednesday

    Time Temperature Precipitation Wind Pressure Humidity
    00:00 +11°C° 0 mm 1 mps 604 mmHg 82%
    01:00 +11°C° 0 mm 1 mps 604 mmHg 82%
    02:00 +10°C° 0 mm 1 mps 604 mmHg 83%
    03:00 +10°C° 0 mm 1 mps 603 mmHg 83%
    04:00 +10°C° 0 mm 1 mps 603 mmHg 84%
    05:00 +11°C° 0 mm 1 mps 604 mmHg 83%
    06:00 +12°C° 0 mm 1 mps 604 mmHg 82%
    07:00 +13°C° 0 mm 1 mps 605 mmHg 81%
    08:00 +15°C° 0 mm 1 mps 606 mmHg 73%
    09:00 +16°C° 0 mm 1 mps 606 mmHg 66%
    10:00 +19°C° 0 mm 1 mps 607 mmHg 58%
    11:00 +19°C° 0.4 mm 1 mps 606 mmHg 58%
    12:00 +19°C° 0.4 mm 1 mps 606 mmHg 59%
    13:00 +20°C° 0.4 mm 1 mps 606 mmHg 59%
    14:00 +19°C° 1.1 mm 1 mps 606 mmHg 63%
    15:00 +18°C° 1.1 mm 2 mps 605 mmHg 67%
    16:00 +17°C° 1.1 mm 2 mps 605 mmHg 72%
    17:00 +16°C° 1.1 mm 1 mps 605 mmHg 77%
    18:00 +15°C° 1.1 mm 1 mps 604 mmHg 83%
    19:00 +12°C° 1.1 mm 0 mps 604 mmHg 88%
    20:00 +12°C° 0.5 mm 0 mps 604 mmHg 88%
    21:00 +11°C° 0.5 mm 0 mps 604 mmHg 88%
    22:00 +11°C° 0.5 mm 0 mps 604 mmHg 89%
    23:00 +11°C° 0 mm 0 mps 604 mmHg 88%

    29 August, Thursday

    Time Temperature Precipitation Wind Pressure Humidity
    00:00 +10°C° 0 mm 0 mps 603 mmHg 87%
    01:00 +10°C° 0 mm 0 mps 603 mmHg 87%
    02:00 +10°C° 0 mm 0 mps 603 mmHg 87%
    03:00 +9°C° 0 mm 0 mps 603 mmHg 87%
    04:00 +9°C° 0 mm 0 mps 602 mmHg 88%
    05:00 +10°C° 0.1 mm 0 mps 603 mmHg 86%
    06:00 +11°C° 0.1 mm 0 mps 604 mmHg 84%
    07:00 +12°C° 0.1 mm 0 mps 604 mmHg 82%
    08:00 +14°C° 0.6 mm 1 mps 605 mmHg 78%
    09:00 +15°C° 0.6 mm 1 mps 605 mmHg 74%
    10:00 +16°C° 0.6 mm 1 mps 606 mmHg 69%
    11:00 +16°C° 1.4 mm 2 mps 606 mmHg 70%
    12:00 +17°C° 1.4 mm 2 mps 606 mmHg 71%
    13:00 +17°C° 1.4 mm 2 mps 606 mmHg 72%
    14:00 +16°C° 1.4 mm 2 mps 605 mmHg 76%
    15:00 +15°C° 1.4 mm 2 mps 605 mmHg 79%
    16:00 +15°C° 1.4 mm 2 mps 605 mmHg 83%
    17:00 +14°C° 0.8 mm 1 mps 605 mmHg 87%
    18:00 +13°C° 0.8 mm 1 mps 604 mmHg 90%
    19:00 +12°C° 0.8 mm 1 mps 604 mmHg 94%
    20:00 +12°C° 0.4 mm 1 mps 604 mmHg 94%
    21:00 +12°C° 0.4 mm 1 mps 605 mmHg 93%
    22:00 +10°C° 0.4 mm 0 mps 605 mmHg 93%
    23:00 +10°C° 0 mm 0 mps 604 mmHg 93%
    Show more